Time,TemperatureF,DewpointF,PressureIn,WindDirection,WindDirectionDegrees,WindSpeedMPH,WindSpeedGustMPH,Humidity,HourlyPrecipIn,Conditions,Clouds,dailyrainin,SoftwareType,DateUTC
2013-02-13 00:04:00,44.1,35.6,28.70,South,179,3.1,3.1,72,0.00,,---,0.00,VWS V14.01,2013-02-13 08:04:00,
2013-02-13 00:10:00,43.9,35.5,28.70,SSW,194,0.0,3.1,72,0.00,,---,0.00,VWS V14.01,2013-02-13 08:10:00,
2013-02-13 00:15:00,43.9,35.8,28.70,SSW,202,0.0,0.0,73,0.00,,---,0.00,VWS V14.01,2013-02-13 08:15:00,
2013-02-13 00:20:00,43.9,35.8,28.70,SSW,195,0.0,0.0,73,0.00,,---,0.00,VWS V14.01,2013-02-13 08:20:00,
2013-02-13 00:26:00,43.7,35.6,28.70,SSW,212,0.0,0.0,73,0.00,,---,0.00,VWS V14.01,2013-02-13 08:26:00,
2013-02-13 00:31:00,43.5,35.5,28.70,SSW,207,2.7,2.7,73,0.00,,---,0.00,VWS V14.01,2013-02-13 08:31:00,
2013-02-13 00:36:00,43.5,35.5,28.70,SSW,206,0.0,0.0,73,0.00,,---,0.00,VWS V14.01,2013-02-13 08:36:00,
2013-02-13 00:41:00,43.5,35.5,28.70,SSW,198,0.0,0.0,73,0.00,,---,0.00,VWS V14.01,2013-02-13 08:41:00,
2013-02-13 00:47:00,43.5,35.5,28.70,South,177,2.7,2.7,73,0.00,,---,0.00,VWS V14.01,2013-02-13 08:47:00,
2013-02-13 00:52:00,43.5,35.5,28.70,SSW,212,2.2,2.2,73,0.00,,---,0.00,VWS V14.01,2013-02-13 08:52:00,
2013-02-13 00:57:00,43.3,35.3,28.70,SSW,211,0.0,0.0,73,0.00,,---,0.00,VWS V14.01,2013-02-13 08:57:00,
2013-02-13 01:03:00,43.3,35.3,28.70,SW,214,0.0,2.2,73,0.00,,---,0.00,VWS V14.01,2013-02-13 09:03:00,
2013-02-13 01:08:00,43.3,35.3,28.70,South,186,0.0,0.0,73,0.00,,---,0.00,VWS V14.01,2013-02-13 09:08:00,
2013-02-13 01:13:00,43.3,35.3,28.70,SSW,194,0.0,0.0,73,0.00,,---,0.00,VWS V14.01,2013-02-13 09:13:00,
2013-02-13 01:18:00,43.2,35.5,28.70,SSW,206,0.0,2.7,74,0.00,,---,0.00,VWS V14.01,2013-02-13 09:18:00,
2013-02-13 01:24:00,43.2,35.5,28.70,South,172,0.0,0.0,74,0.00,,---,0.00,VWS V14.01,2013-02-13 09:24:00,
2013-02-13 01:29:00,43.0,35.3,28.70,SSW,209,0.0,0.0,74,0.00,,---,0.00,VWS V14.01,2013-02-13 09:29:00,
2013-02-13 01:34:00,43.0,35.3,28.70,SW,217,0.0,0.0,74,0.00,,---,0.00,VWS V14.01,2013-02-13 09:34:00,
2013-02-13 01:39:00,43.0,35.3,28.70,South,189,0.0,0.0,74,0.00,,---,0.00,VWS V14.01,2013-02-13 09:39:00,
2013-02-13 01:45:00,43.0,35.3,28.70,SSW,203,0.0,0.0,74,0.00,,---,0.00,VWS V14.01,2013-02-13 09:45:00,
2013-02-13 01:50:00,43.0,35.3,28.70,South,179,0.0,2.2,74,0.00,,---,0.00,VWS V14.01,2013-02-13 09:50:00,
2013-02-13 01:55:00,43.0,35.3,28.70,South,179,0.0,0.0,74,0.00,,---,0.00,VWS V14.01,2013-02-13 09:55:00,
2013-02-13 02:00:00,43.0,35.3,28.70,SSW,205,2.7,2.7,74,0.00,,---,0.00,VWS V14.01,2013-02-13 10:00:00,
2013-02-13 02:06:00,43.0,35.3,28.70,SSE,165,4.0,4.0,74,0.00,,---,0.00,VWS V14.01,2013-02-13 10:06:00,
2013-02-13 02:11:00,43.0,35.3,28.70,SSW,202,3.6,3.6,74,0.00,,---,0.00,VWS V14.01,2013-02-13 10:11:00,
2013-02-13 02:16:00,43.0,35.3,28.70,WSW,238,0.0,3.1,74,0.00,,---,0.00,VWS V14.01,2013-02-13 10:16:00,
2013-02-13 02:21:00,43.0,35.3,28.70,WSW,238,0.0,0.0,74,0.00,,---,0.00,VWS V14.01,2013-02-13 10:21:00,
2013-02-13 02:27:00,43.0,35.3,28.70,SW,227,0.0,0.0,74,0.00,,---,0.00,VWS V14.01,2013-02-13 10:27:00,
2013-02-13 02:32:00,43.0,35.6,28.70,SSW,208,0.0,0.0,75,0.00,,---,0.00,VWS V14.01,2013-02-13 10:32:00,
2013-02-13 02:37:00,43.0,35.6,28.70,SSW,208,0.0,0.0,75,0.00,,---,0.00,VWS V14.01,2013-02-13 10:37:00,
2013-02-13 02:43:00,43.0,35.6,28.70,SSW,199,0.0,0.0,75,0.00,,---,0.00,VWS V14.01,2013-02-13 10:43:00,
2013-02-13 02:48:00,43.0,35.6,28.70,SSW,199,0.0,0.0,75,0.00,,---,0.00,VWS V14.01,2013-02-13 10:48:00,
2013-02-13 02:53:00,43.0,35.6,28.70,SSW,199,0.0,0.0,75,0.00,,---,0.00,VWS V14.01,2013-02-13 10:53:00,
2013-02-13 02:58:00,43.0,35.6,28.70,SSW,205,2.7,2.7,75,0.00,,---,0.00,VWS V14.01,2013-02-13 10:58:00,
2013-02-13 03:04:00,43.0,35.6,28.70,South,182,3.6,3.6,75,0.00,,---,0.00,VWS V14.01,2013-02-13 11:04:00,
2013-02-13 03:09:00,43.0,35.6,28.70,SSW,210,4.0,4.0,75,0.00,,---,0.00,VWS V14.01,2013-02-13 11:09:00,
2013-02-13 03:14:00,43.0,35.6,28.70,SSW,210,4.0,4.0,75,0.00,,---,0.00,VWS V14.01,2013-02-13 11:14:00,
2013-02-13 03:19:00,43.2,35.8,28.70,SSW,207,2.7,4.0,75,0.00,,---,0.00,VWS V14.01,2013-02-13 11:19:00,
2013-02-13 03:25:00,43.2,35.8,28.70,SSW,207,4.0,4.0,75,0.00,,---,0.00,VWS V14.01,2013-02-13 11:25:00,
2013-02-13 03:30:00,43.2,35.8,28.70,South,178,2.2,2.2,75,0.00,,---,0.00,VWS V14.01,2013-02-13 11:30:00,
2013-02-13 03:35:00,43.2,35.8,28.70,SSW,200,0.0,2.2,75,0.00,,---,0.00,VWS V14.01,2013-02-13 11:35:00,
2013-02-13 03:40:00,43.2,35.8,28.70,SSW,200,0.0,0.0,75,0.00,,---,0.00,VWS V14.01,2013-02-13 11:40:00,
2013-02-13 03:45:00,43.2,35.8,28.70,South,175,3.1,3.1,75,0.00,,---,0.00,VWS V14.01,2013-02-13 11:45:00,
2013-02-13 03:51:00,43.2,35.8,28.70,South,190,0.0,2.2,75,0.00,,---,0.00,VWS V14.01,2013-02-13 11:51:00,
2013-02-13 03:56:00,43.2,35.8,28.70,South,190,0.0,0.0,75,0.00,,---,0.00,VWS V14.01,2013-02-13 11:56:00,
2013-02-13 04:01:00,43.0,35.6,28.70,SSW,196,2.7,2.7,75,0.00,,---,0.00,VWS V14.01,2013-02-13 12:01:00,
2013-02-13 04:06:00,43.0,35.6,28.70,SSW,196,2.7,2.7,75,0.00,,---,0.00,VWS V14.01,2013-02-13 12:06:00,
2013-02-13 04:12:00,43.0,35.6,28.70,SSW,193,2.7,2.7,75,0.00,,---,0.00,VWS V14.01,2013-02-13 12:12:00,
2013-02-13 04:17:00,43.0,35.6,28.70,SSW,193,4.0,4.0,75,0.00,,---,0.00,VWS V14.01,2013-02-13 12:17:00,
2013-02-13 04:22:00,43.2,35.8,28.70,SSW,193,4.0,4.0,75,0.00,,---,0.00,VWS V14.01,2013-02-13 12:22:00,
2013-02-13 04:27:00,43.2,35.8,28.70,SSW,202,0.0,0.0,75,0.00,,---,0.00,VWS V14.01,2013-02-13 12:27:00,
2013-02-13 04:33:00,43.2,35.8,28.70,SSW,211,0.0,0.0,75,0.00,,---,0.00,VWS V14.01,2013-02-13 12:33:00,
2013-02-13 04:38:00,43.2,35.8,28.70,SSW,210,0.0,0.0,75,0.00,,---,0.00,VWS V14.01,2013-02-13 12:38:00,
2013-02-13 04:43:00,43.2,35.8,28.70,SSW,203,0.0,0.0,75,0.00,,---,0.00,VWS V14.01,2013-02-13 12:43:00,
2013-02-13 04:48:00,43.3,36.0,28.70,SSW,203,0.0,0.0,75,0.00,,---,0.00,VWS V14.01,2013-02-13 12:48:00,
2013-02-13 04:54:00,43.3,36.0,28.70,South,169,0.0,0.0,75,0.00,,---,0.00,VWS V14.01,2013-02-13 12:54:00,
2013-02-13 04:59:00,43.3,36.0,28.70,SSW,198,3.1,3.1,75,0.00,,---,0.00,VWS V14.01,2013-02-13 12:59:00,
2013-02-13 05:04:00,43.3,36.3,28.70,SSW,197,2.7,2.7,76,0.00,,---,0.00,VWS V14.01,2013-02-13 13:04:00,
2013-02-13 05:09:00,43.3,36.3,28.70,South,178,0.0,2.7,76,0.00,,---,0.00,VWS V14.01,2013-02-13 13:09:00,
2013-02-13 05:15:00,43.3,36.3,28.70,SSW,209,3.1,3.1,76,0.00,,---,0.00,VWS V14.01,2013-02-13 13:15:00,
2013-02-13 05:20:00,43.3,36.3,28.70,South,176,3.1,3.1,76,0.00,,---,0.00,VWS V14.01,2013-02-13 13:20:00,
2013-02-13 05:25:00,43.3,36.3,28.70,SSW,207,4.0,4.0,76,0.00,,---,0.00,VWS V14.01,2013-02-13 13:25:00,
2013-02-13 05:31:00,43.3,36.3,28.70,SSW,195,4.0,4.0,76,0.00,,---,0.00,VWS V14.01,2013-02-13 13:31:00,
2013-02-13 05:36:00,43.2,36.1,28.70,South,184,0.0,0.0,76,0.00,,---,0.00,VWS V14.01,2013-02-13 13:36:00,
2013-02-13 05:41:00,43.2,36.1,28.70,SSW,212,3.1,3.1,76,0.00,,---,0.00,VWS V14.01,2013-02-13 13:41:00,
2013-02-13 05:46:00,43.2,36.1,28.70,SSW,212,5.4,5.4,76,0.00,,---,0.00,VWS V14.01,2013-02-13 13:46:00,
2013-02-13 05:52:00,43.2,36.1,28.70,South,180,2.2,3.6,76,0.00,,---,0.00,VWS V14.01,2013-02-13 13:52:00,
2013-02-13 05:57:00,43.2,36.1,28.70,South,180,2.2,2.2,76,0.00,,---,0.00,VWS V14.01,2013-02-13 13:57:00,
2013-02-13 06:02:00,43.2,36.1,28.70,South,186,5.4,5.4,76,0.00,,---,0.00,VWS V14.01,2013-02-13 14:02:00,
2013-02-13 06:07:00,43.2,36.1,28.70,SSW,209,3.6,4.0,76,0.00,,---,0.00,VWS V14.01,2013-02-13 14:07:00,
2013-02-13 06:13:00,43.0,36.0,28.70,South,178,0.0,0.0,76,0.00,,---,0.00,VWS V14.01,2013-02-13 14:13:00,
2013-02-13 06:18:00,43.0,36.0,28.70,SSW,201,3.6,3.6,76,0.00,,---,0.00,VWS V14.01,2013-02-13 14:18:00,
2013-02-13 06:23:00,43.0,36.0,28.70,SSW,201,3.6,3.6,76,0.00,,---,0.00,VWS V14.01,2013-02-13 14:23:00,
2013-02-13 06:28:00,43.0,36.0,28.70,SSW,201,3.6,3.6,76,0.00,,---,0.00,VWS V14.01,2013-02-13 14:28:00,
2013-02-13 06:34:00,43.0,36.0,28.70,WSW,240,2.7,2.7,76,0.00,,---,0.00,VWS V14.01,2013-02-13 14:34:00,
2013-02-13 06:39:00,42.8,35.8,28.70,South,176,3.1,3.1,76,0.00,,---,0.00,VWS V14.01,2013-02-13 14:39:00,
2013-02-13 06:44:00,42.8,35.8,28.70,SSW,208,3.1,3.1,76,0.00,,---,0.00,VWS V14.01,2013-02-13 14:44:00,
2013-02-13 06:49:00,42.8,35.8,28.70,SSW,208,3.1,3.1,76,0.00,,---,0.00,VWS V14.01,2013-02-13 14:49:00,
2013-02-13 06:55:00,42.8,35.8,28.70,SSW,208,3.1,3.1,76,0.00,,---,0.00,VWS V14.01,2013-02-13 14:55:00,
2013-02-13 07:00:00,42.8,35.8,28.70,South,185,0.0,3.1,76,0.00,,---,0.00,VWS V14.01,2013-02-13 15:00:00,
2013-02-13 07:05:00,42.8,35.8,28.70,SSE,167,0.0,0.0,76,0.00,,---,0.00,VWS V14.01,2013-02-13 15:05:00,
2013-02-13 07:10:00,42.8,35.8,28.70,SSW,197,0.0,0.0,76,0.00,,---,0.00,VWS V14.01,2013-02-13 15:10:00,
2013-02-13 07:16:00,42.8,35.8,28.70,SSW,197,0.0,0.0,76,0.00,,---,0.00,VWS V14.01,2013-02-13 15:16:00,
2013-02-13 07:21:00,42.6,35.6,28.70,SSW,197,0.0,0.0,76,0.00,,---,0.00,VWS V14.01,2013-02-13 15:21:00,
2013-02-13 07:26:00,42.6,35.9,28.70,SSW,196,0.0,0.0,77,0.00,,---,0.00,VWS V14.01,2013-02-13 15:26:00,
2013-02-13 07:31:00,42.6,35.9,28.70,SSW,198,0.0,0.0,77,0.00,,---,0.00,VWS V14.01,2013-02-13 15:31:00,
2013-02-13 07:37:00,42.8,35.8,28.70,South,191,3.1,3.1,76,0.00,,---,0.00,VWS V14.01,2013-02-13 15:37:00,
2013-02-13 07:42:00,42.8,35.8,28.70,South,191,3.1,3.1,76,0.00,,---,0.00,VWS V14.01,2013-02-13 15:42:00,
2013-02-13 07:47:00,42.8,35.8,28.70,South,191,3.1,3.1,76,0.00,,---,0.00,VWS V14.01,2013-02-13 15:47:00,
2013-02-13 07:53:00,42.8,35.8,28.70,East,92,3.1,3.1,76,0.00,,---,0.00,VWS V14.01,2013-02-13 15:53:00,
2013-02-13 07:58:00,42.8,35.8,28.70,East,92,3.1,3.1,76,0.00,,---,0.00,VWS V14.01,2013-02-13 15:58:00,
2013-02-13 08:03:00,42.8,35.8,28.70,SSW,213,2.7,4.9,76,0.00,,---,0.00,VWS V14.01,2013-02-13 16:03:00,
2013-02-13 08:08:00,42.8,35.8,28.70,South,183,4.0,4.0,76,0.00,,---,0.00,VWS V14.01,2013-02-13 16:08:00,
2013-02-13 08:14:00,42.8,35.8,28.70,SW,220,4.0,4.0,76,0.00,,---,0.00,VWS V14.01,2013-02-13 16:14:00,
2013-02-13 08:19:00,42.8,35.8,28.70,SSW,193,3.6,4.0,76,0.00,,---,0.00,VWS V14.01,2013-02-13 16:19:00,
2013-02-13 08:24:00,42.8,35.8,28.70,SSE,156,4.0,4.0,76,0.00,,---,0.00,VWS V14.01,2013-02-13 16:24:00,
2013-02-13 08:29:00,43.0,36.0,28.70,SSW,197,5.4,5.4,76,0.00,,---,0.00,VWS V14.01,2013-02-13 16:29:00,
2013-02-13 08:35:00,43.0,36.0,28.70,SSW,203,2.7,3.1,76,0.00,,---,0.00,VWS V14.01,2013-02-13 16:35:00,
2013-02-13 08:40:00,43.5,36.5,28.70,SSW,198,0.0,4.0,76,0.00,,---,0.00,VWS V14.01,2013-02-13 16:40:00,
2013-02-13 08:45:00,43.5,36.5,28.70,South,179,3.6,5.4,76,0.00,,---,0.00,VWS V14.01,2013-02-13 16:45:00,
2013-02-13 08:50:00,43.5,36.5,28.70,SW,225,0.0,3.6,76,0.00,,---,0.00,VWS V14.01,2013-02-13 16:50:00,
2013-02-13 08:55:00,44.2,37.2,28.70,South,190,2.7,2.7,76,0.00,,---,0.00,VWS V14.01,2013-02-13 16:55:00,
2013-02-13 09:01:00,44.2,37.2,28.70,SSW,202,2.2,2.2,76,0.00,,---,0.00,VWS V14.01,2013-02-13 17:01:00,
2013-02-13 09:06:00,45.0,37.9,28.70,South,177,0.0,0.0,76,0.00,,---,0.00,VWS V14.01,2013-02-13 17:06:00,
2013-02-13 09:11:00,45.1,38.0,28.70,SSW,213,3.6,3.6,76,0.00,,---,0.00,VWS V14.01,2013-02-13 17:11:00,
2013-02-13 09:17:00,45.1,38.0,28.70,SSW,200,3.1,3.1,76,0.00,,---,0.00,VWS V14.01,2013-02-13 17:17:00,
2013-02-13 09:22:00,45.3,37.9,28.70,SSW,202,2.7,2.7,75,0.00,,---,0.00,VWS V14.01,2013-02-13 17:22:00,
2013-02-13 09:27:00,45.3,37.9,28.70,SSW,210,5.8,5.8,75,0.00,,---,0.00,VWS V14.01,2013-02-13 17:27:00,
2013-02-13 09:32:00,45.3,37.9,28.70,SW,218,3.6,3.6,75,0.00,,---,0.00,VWS V14.01,2013-02-13 17:32:00,
2013-02-13 09:38:00,45.3,37.9,28.70,SSW,210,4.0,4.0,75,0.00,,---,0.00,VWS V14.01,2013-02-13 17:38:00,
2013-02-13 09:43:00,45.3,37.9,28.73,South,181,4.9,4.9,75,0.00,,---,0.00,VWS V14.01,2013-02-13 17:43:00,
2013-02-13 09:48:00,45.1,37.0,28.73,SSE,154,4.9,4.9,73,0.00,,---,0.00,VWS V14.01,2013-02-13 17:48:00,
2013-02-13 09:54:00,45.3,36.5,28.73,SSW,213,3.6,4.0,71,0.00,,---,0.00,VWS V14.01,2013-02-13 17:54:00,
2013-02-13 09:59:00,45.3,36.1,28.73,SSE,160,5.8,5.8,70,0.00,,---,0.00,VWS V14.01,2013-02-13 17:59:00,
2013-02-13 10:04:00,45.3,36.1,28.73,SSW,206,5.4,5.8,70,0.00,,---,0.00,VWS V14.01,2013-02-13 18:04:00,
2013-02-13 10:09:00,45.3,36.1,28.73,SW,215,4.0,5.4,70,0.00,,---,0.00,VWS V14.01,2013-02-13 18:09:00,
2013-02-13 10:15:00,45.5,34.4,28.73,SSW,199,3.1,4.0,65,0.00,,---,0.00,VWS V14.01,2013-02-13 18:15:00,
2013-02-13 10:20:00,45.9,34.4,28.73,SSW,206,2.7,5.8,64,0.00,,---,0.00,VWS V14.01,2013-02-13 18:20:00,
2013-02-13 10:25:00,46.0,34.2,28.73,SW,227,2.7,3.1,63,0.00,,---,0.00,VWS V14.01,2013-02-13 18:25:00,
2013-02-13 10:30:00,46.0,34.2,28.73,South,187,4.0,4.0,63,0.00,,---,0.00,VWS V14.01,2013-02-13 18:30:00,
2013-02-13 10:36:00,46.0,33.4,28.73,SW,234,4.0,4.0,61,0.00,,---,0.00,VWS V14.01,2013-02-13 18:36:00,
2013-02-13 10:41:00,46.0,33.0,28.73,SW,226,4.0,4.0,60,0.00,,---,0.00,VWS V14.01,2013-02-13 18:41:00,
2013-02-13 10:46:00,45.9,32.8,28.73,South,172,5.4,5.4,60,0.00,,---,0.00,VWS V14.01,2013-02-13 18:46:00,
2013-02-13 10:51:00,46.0,33.0,28.73,South,169,4.9,4.9,60,0.00,,---,0.00,VWS V14.01,2013-02-13 18:51:00,
2013-02-13 10:57:00,46.0,32.5,28.73,WSW,240,3.1,3.1,59,0.00,,---,0.00,VWS V14.01,2013-02-13 18:57:00,
2013-02-13 11:02:00,46.2,32.7,28.73,South,184,4.9,6.3,59,0.00,,---,0.00,VWS V14.01,2013-02-13 19:02:00,
2013-02-13 11:07:00,46.4,32.4,28.73,South,179,4.0,4.0,58,0.00,,---,0.00,VWS V14.01,2013-02-13 19:07:00,
2013-02-13 11:12:00,46.6,32.2,28.73,South,186,3.6,4.0,57,0.00,,---,0.00,VWS V14.01,2013-02-13 19:12:00,
2013-02-13 11:18:00,46.6,32.2,28.73,SSE,152,3.6,3.6,57,0.00,,---,0.00,VWS V14.01,2013-02-13 19:18:00,
2013-02-13 11:23:00,46.8,32.3,28.73,SW,215,2.7,2.7,57,0.00,,---,0.00,VWS V14.01,2013-02-13 19:23:00,
2013-02-13 11:28:00,46.8,32.3,28.73,South,188,4.9,4.9,57,0.00,,---,0.00,VWS V14.01,2013-02-13 19:28:00,
2013-02-13 11:33:00,46.8,32.3,28.73,South,175,3.1,4.9,57,0.00,,---,0.00,VWS V14.01,2013-02-13 19:33:00,
2013-02-13 11:39:00,46.4,31.6,28.73,SSW,207,3.6,3.6,56,0.00,,---,0.00,VWS V14.01,2013-02-13 19:39:00,
2013-02-13 11:44:00,46.4,31.6,28.73,SW,219,3.6,3.6,56,0.00,,---,0.00,VWS V14.01,2013-02-13 19:44:00,
2013-02-13 11:49:00,46.4,32.0,28.73,SSW,199,3.6,3.6,57,0.00,,---,0.00,VWS V14.01,2013-02-13 19:49:00,
2013-02-13 11:55:00,46.4,32.0,28.73,South,189,0.0,3.6,57,0.00,,---,0.00,VWS V14.01,2013-02-13 19:55:00,
2013-02-13 12:00:00,46.6,32.6,28.73,South,189,0.0,0.0,58,0.00,,---,0.00,VWS V14.01,2013-02-13 20:00:00,
2013-02-13 12:05:00,46.9,33.0,28.73,SSW,210,2.7,2.7,58,0.00,,---,0.00,VWS V14.01,2013-02-13 20:05:00,
2013-02-13 12:10:00,46.8,32.3,28.70,SSW,203,3.1,3.1,57,0.00,,---,0.00,VWS V14.01,2013-02-13 20:10:00,
2013-02-13 12:16:00,46.6,31.7,28.70,South,180,3.6,3.6,56,0.00,,---,0.00,VWS V14.01,2013-02-13 20:16:00,
2013-02-13 12:21:00,46.8,31.9,28.70,SW,220,2.7,2.7,56,0.00,,---,0.00,VWS V14.01,2013-02-13 20:21:00,
2013-02-13 12:26:00,46.8,31.9,28.70,SSW,199,3.1,3.1,56,0.00,,---,0.00,VWS V14.01,2013-02-13 20:26:00,
2013-02-13 12:32:00,46.8,31.9,28.70,SW,229,2.7,2.7,56,0.00,,---,0.00,VWS V14.01,2013-02-13 20:32:00,
2013-02-13 12:37:00,46.9,32.1,28.70,SW,232,2.7,2.7,56,0.00,,---,0.00,VWS V14.01,2013-02-13 20:37:00,
2013-02-13 12:42:00,47.3,32.4,28.70,SW,228,5.4,5.4,56,0.00,,---,0.00,VWS V14.01,2013-02-13 20:42:00,
2013-02-13 12:47:00,47.3,32.4,28.70,SW,219,0.0,2.7,56,0.00,,---,0.00,VWS V14.01,2013-02-13 20:47:00,
2013-02-13 12:52:00,47.3,32.4,28.70,South,184,0.0,0.0,56,0.00,,---,0.00,VWS V14.01,2013-02-13 20:52:00,
2013-02-13 12:58:00,46.9,31.6,28.70,South,175,0.0,0.0,55,0.00,,---,0.00,VWS V14.01,2013-02-13 20:58:00,
2013-02-13 13:03:00,46.8,31.5,28.70,South,190,2.2,2.7,55,0.00,,---,0.00,VWS V14.01,2013-02-13 21:03:00,
2013-02-13 13:08:00,46.8,31.5,28.70,South,191,0.0,2.2,55,0.00,,---,0.00,VWS V14.01,2013-02-13 21:08:00,
2013-02-13 13:13:00,46.6,31.3,28.70,SSE,163,4.9,4.9,55,0.00,,---,0.00,VWS V14.01,2013-02-13 21:13:00,
2013-02-13 13:19:00,46.6,31.3,28.70,SSW,194,0.0,4.9,55,0.00,,---,0.00,VWS V14.01,2013-02-13 21:19:00,
2013-02-13 13:24:00,46.6,31.3,28.70,SSW,194,0.0,0.0,55,0.00,,---,0.00,VWS V14.01,2013-02-13 21:24:00,
2013-02-13 13:29:00,46.6,31.7,28.70,SSW,196,2.2,2.2,56,0.00,,---,0.00,VWS V14.01,2013-02-13 21:29:00,
2013-02-13 13:34:00,46.8,31.9,28.70,South,173,0.0,2.2,56,0.00,,---,0.00,VWS V14.01,2013-02-13 21:34:00,
2013-02-13 13:40:00,46.8,31.9,28.70,South,181,4.0,4.0,56,0.00,,---,0.00,VWS V14.01,2013-02-13 21:40:00,
2013-02-13 13:45:00,46.8,31.9,28.70,SSE,156,4.0,4.9,56,0.00,,---,0.00,VWS V14.01,2013-02-13 21:45:00,
2013-02-13 13:50:00,46.9,31.2,28.70,SSE,156,4.0,4.0,54,0.00,,---,0.00,VWS V14.01,2013-02-13 21:50:00,
2013-02-13 13:56:00,46.9,31.2,28.70,SW,216,4.0,4.0,54,0.00,,---,0.00,VWS V14.01,2013-02-13 21:56:00,
2013-02-13 14:01:00,47.1,31.8,28.70,SSW,208,0.0,0.0,55,0.00,,---,0.00,VWS V14.01,2013-02-13 22:01:00,
2013-02-13 14:06:00,47.1,31.8,28.70,South,186,0.0,4.9,55,0.00,,---,0.00,VWS V14.01,2013-02-13 22:06:00,
2013-02-13 14:11:00,47.3,32.0,28.70,SE,138,0.0,0.0,55,0.00,,---,0.00,VWS V14.01,2013-02-13 22:11:00,
2013-02-13 14:17:00,47.3,31.5,28.70,SSE,150,0.0,0.0,54,0.00,,---,0.00,VWS V14.01,2013-02-13 22:17:00,
2013-02-13 14:22:00,47.3,31.5,28.70,SE,139,0.0,0.0,54,0.00,,---,0.00,VWS V14.01,2013-02-13 22:22:00,
2013-02-13 14:27:00,47.3,31.0,28.70,SE,139,0.0,0.0,53,0.00,,---,0.00,VWS V14.01,2013-02-13 22:27:00,
2013-02-13 14:32:00,47.3,31.0,28.70,SE,138,3.1,3.1,53,0.00,,---,0.00,VWS V14.01,2013-02-13 22:32:00,
2013-02-13 14:38:00,47.3,31.0,28.70,SSW,196,0.0,0.0,53,0.00,,---,0.00,VWS V14.01,2013-02-13 22:38:00,
2013-02-13 14:43:00,47.3,31.0,28.67,ESE,109,3.1,3.1,53,0.00,,---,0.00,VWS V14.01,2013-02-13 22:43:00,
2013-02-13 14:48:00,47.3,31.0,28.67,SSE,168,0.0,3.1,53,0.00,,---,0.00,VWS V14.01,2013-02-13 22:48:00,
2013-02-13 14:53:00,47.5,31.2,28.70,SSW,213,0.0,0.0,53,0.00,,---,0.00,VWS V14.01,2013-02-13 22:53:00,
2013-02-13 14:59:00,47.5,30.8,28.70,SSW,213,0.0,0.0,52,0.00,,---,0.00,VWS V14.01,2013-02-13 22:59:00,
2013-02-13 15:04:00,47.3,30.6,28.70,SSW,213,0.0,0.0,52,0.00,,---,0.00,VWS V14.01,2013-02-13 23:04:00,
2013-02-13 15:09:00,47.3,30.6,28.70,ESE,114,0.0,0.0,52,0.00,,---,0.00,VWS V14.01,2013-02-13 23:09:00,
2013-02-13 15:14:00,47.3,30.6,28.70,ESE,114,0.0,0.0,52,0.00,,---,0.00,VWS V14.01,2013-02-13 23:14:00,
2013-02-13 15:20:00,47.1,30.4,28.70,ESE,107,2.7,4.0,52,0.00,,---,0.00,VWS V14.01,2013-02-13 23:20:00,
2013-02-13 15:25:00,46.9,30.2,28.70,ESE,107,2.7,2.7,52,0.00,,---,0.00,VWS V14.01,2013-02-13 23:25:00,
2013-02-13 15:30:00,46.9,30.2,28.67,South,190,2.7,2.7,52,0.00,,---,0.00,VWS V14.01,2013-02-13 23:30:00,
2013-02-13 15:35:00,46.6,30.4,28.67,South,190,0.0,0.0,53,0.00,,---,0.00,VWS V14.01,2013-02-13 23:35:00,
2013-02-13 15:41:00,46.4,30.2,28.67,South,190,0.0,0.0,53,0.00,,---,0.00,VWS V14.01,2013-02-13 23:41:00,
2013-02-13 15:46:00,46.2,30.5,28.67,SSW,209,0.0,2.2,54,0.00,,---,0.00,VWS V14.01,2013-02-13 23:46:00,
2013-02-13 15:51:00,46.2,30.5,28.67,SSW,209,0.0,0.0,54,0.00,,---,0.00,VWS V14.01,2013-02-13 23:51:00,
2013-02-13 15:56:00,46.2,30.5,28.70,SSE,162,0.0,0.0,54,0.00,,---,0.00,VWS V14.01,2013-02-13 23:56:00,
2013-02-13 16:02:00,45.9,30.2,28.70,SSE,167,0.0,0.0,54,0.00,,---,0.00,VWS V14.01,2013-02-14 00:02:00,
2013-02-13 16:07:00,45.7,30.5,28.70,SSE,167,0.0,0.0,55,0.00,,---,0.00,VWS V14.01,2013-02-14 00:07:00,
2013-02-13 16:12:00,45.7,30.5,28.70,SSE,167,0.0,0.0,55,0.00,,---,0.00,VWS V14.01,2013-02-14 00:12:00,
2013-02-13 16:17:00,45.7,30.5,28.70,SSE,167,0.0,0.0,55,0.00,,---,0.00,VWS V14.01,2013-02-14 00:17:00,
2013-02-13 16:23:00,45.7,30.5,28.70,SSE,167,0.0,0.0,55,0.00,,---,0.00,VWS V14.01,2013-02-14 00:23:00,
2013-02-13 16:28:00,45.3,31.0,28.70,SSE,167,0.0,0.0,57,0.00,,---,0.00,VWS V14.01,2013-02-14 00:28:00,
2013-02-13 16:33:00,45.1,30.8,28.70,SSE,167,0.0,0.0,57,0.00,,---,0.00,VWS V14.01,2013-02-14 00:33:00,
2013-02-13 16:38:00,45.1,31.3,28.70,SE,125,2.2,3.1,58,0.00,,---,0.00,VWS V14.01,2013-02-14 00:38:00,
2013-02-13 16:44:00,45.1,31.3,28.70,SSE,166,0.0,2.2,58,0.00,,---,0.00,VWS V14.01,2013-02-14 00:44:00,
2013-02-13 16:49:00,45.1,31.3,28.70,South,175,2.7,2.7,58,0.00,,---,0.00,VWS V14.01,2013-02-14 00:49:00,
2013-02-13 16:54:00,45.1,31.3,28.70,South,183,0.0,0.0,58,0.00,,---,0.00,VWS V14.01,2013-02-14 00:54:00,
2013-02-13 17:00:00,44.6,32.0,28.70,SW,222,0.0,0.0,61,0.00,,---,0.00,VWS V14.01,2013-02-14 01:00:00,
2013-02-13 17:05:00,44.6,32.0,28.70,SW,222,2.2,2.7,61,0.00,,---,0.00,VWS V14.01,2013-02-14 01:05:00,
2013-02-13 17:10:00,44.6,32.0,28.70,SW,219,4.9,4.9,61,0.00,,---,0.00,VWS V14.01,2013-02-14 01:10:00,
2013-02-13 17:15:00,44.4,32.2,28.70,SSW,198,4.0,4.0,62,0.00,,---,0.00,VWS V14.01,2013-02-14 01:15:00,
2013-02-13 17:21:00,44.2,32.5,28.70,SSW,200,3.6,3.6,63,0.00,,---,0.00,VWS V14.01,2013-02-14 01:21:00,
2013-02-13 17:26:00,44.2,32.8,28.70,South,176,4.9,4.9,64,0.00,,---,0.00,VWS V14.01,2013-02-14 01:26:00,
2013-02-13 17:31:00,44.2,32.8,28.70,SSW,194,2.7,2.7,64,0.00,,---,0.00,VWS V14.01,2013-02-14 01:31:00,
2013-02-13 17:37:00,44.1,33.1,28.70,SSW,198,5.4,5.4,65,0.00,,---,0.00,VWS V14.01,2013-02-14 01:37:00,
2013-02-13 17:42:00,44.1,33.4,28.70,South,189,3.6,3.6,66,0.00,,---,0.00,VWS V14.01,2013-02-14 01:42:00,
2013-02-13 17:47:00,44.1,33.4,28.70,SSW,196,2.7,2.7,66,0.00,,---,0.00,VWS V14.01,2013-02-14 01:47:00,
2013-02-13 17:52:00,44.1,33.4,28.70,South,172,2.7,2.7,66,0.00,,---,0.00,VWS V14.01,2013-02-14 01:52:00,
2013-02-13 17:58:00,43.9,33.7,28.70,South,191,0.0,0.0,67,0.00,,---,0.00,VWS V14.01,2013-02-14 01:58:00,
2013-02-13 18:03:00,43.9,33.7,28.70,SSE,150,0.0,0.0,67,0.00,,---,0.00,VWS V14.01,2013-02-14 02:03:00,
2013-02-13 18:08:00,43.7,33.5,28.70,SSE,150,0.0,0.0,67,0.00,,---,0.00,VWS V14.01,2013-02-14 02:08:00,
2013-02-13 18:13:00,43.7,33.5,28.70,North,0,0.0,0.0,67,0.00,,---,0.00,VWS V14.01,2013-02-14 02:13:00,
2013-02-13 18:19:00,43.5,33.7,28.70,North,0,0.0,0.0,68,0.00,,---,0.00,VWS V14.01,2013-02-14 02:19:00,
2013-02-13 18:24:00,43.3,33.5,28.70,North,0,0.0,0.0,68,0.00,,---,0.00,VWS V14.01,2013-02-14 02:24:00,
2013-02-13 18:29:00,43.5,34.0,28.70,East,93,0.0,0.0,69,0.00,,---,0.00,VWS V14.01,2013-02-14 02:29:00,
2013-02-13 18:34:00,43.5,34.0,28.70,ESE,105,0.0,0.0,69,0.00,,---,0.00,VWS V14.01,2013-02-14 02:34:00,
2013-02-13 18:40:00,43.5,34.0,28.70,SSE,157,2.7,2.7,69,0.00,,---,0.00,VWS V14.01,2013-02-14 02:40:00,
2013-02-13 18:45:00,43.7,34.2,28.70,SSE,152,0.0,2.7,69,0.00,,---,0.00,VWS V14.01,2013-02-14 02:45:00,
2013-02-13 18:50:00,43.7,34.2,28.70,SSE,152,0.0,0.0,69,0.00,,---,0.00,VWS V14.01,2013-02-14 02:50:00,
2013-02-13 18:56:00,43.7,34.2,28.70,SSE,152,0.0,0.0,69,0.00,,---,0.00,VWS V14.01,2013-02-14 02:56:00,
2013-02-13 19:01:00,43.3,33.9,28.70,SSE,152,0.0,0.0,69,0.00,,---,0.00,VWS V14.01,2013-02-14 03:01:00,
2013-02-13 19:06:00,43.3,33.9,28.70,ENE,74,0.0,0.0,69,0.00,,---,0.00,VWS V14.01,2013-02-14 03:06:00,
2013-02-13 19:11:00,43.0,33.5,28.70,ENE,74,0.0,0.0,69,0.00,,---,0.00,VWS V14.01,2013-02-14 03:11:00,
2013-02-13 19:17:00,43.0,33.5,28.70,SE,131,0.0,0.0,69,0.00,,---,0.00,VWS V14.01,2013-02-14 03:17:00,
2013-02-13 19:22:00,42.8,33.3,28.70,SE,131,0.0,0.0,69,0.00,,---,0.00,VWS V14.01,2013-02-14 03:22:00,
2013-02-13 19:27:00,42.8,33.3,28.70,SE,131,0.0,0.0,69,0.00,,---,0.00,VWS V14.01,2013-02-14 03:27:00,
2013-02-13 19:32:00,42.6,33.2,28.70,SE,131,0.0,0.0,69,0.00,,---,0.00,VWS V14.01,2013-02-14 03:32:00,
2013-02-13 19:38:00,42.6,33.2,28.70,SE,131,0.0,0.0,69,0.00,,---,0.00,VWS V14.01,2013-02-14 03:38:00,
2013-02-13 19:43:00,42.3,32.8,28.73,North,0,0.0,0.0,69,0.00,,---,0.00,VWS V14.01,2013-02-14 03:43:00,
2013-02-13 19:48:00,42.3,33.2,28.73,ENE,60,0.0,3.1,70,0.00,,---,0.00,VWS V14.01,2013-02-14 03:48:00,
2013-02-13 19:54:00,42.3,33.2,28.73,ENE,60,0.0,0.0,70,0.00,,---,0.00,VWS V14.01,2013-02-14 03:54:00,
2013-02-13 19:59:00,42.1,33.0,28.73,ENE,61,0.0,2.2,70,0.00,,---,0.00,VWS V14.01,2013-02-14 03:59:00,
2013-02-13 20:04:00,41.7,32.7,28.73,East,79,2.2,2.2,70,0.00,,---,0.00,VWS V14.01,2013-02-14 04:04:00,
2013-02-13 20:09:00,41.5,32.5,28.73,East,79,2.2,2.2,70,0.00,,---,0.00,VWS V14.01,2013-02-14 04:09:00,
2013-02-13 20:15:00,41.5,32.5,28.73,East,83,3.6,3.6,70,0.00,,---,0.00,VWS V14.01,2013-02-14 04:15:00,
2013-02-13 20:20:00,41.4,32.3,28.73,East,83,3.6,3.6,70,0.00,,---,0.00,VWS V14.01,2013-02-14 04:20:00,
2013-02-13 20:25:00,41.4,32.7,28.73,East,101,4.0,4.0,71,0.00,,---,0.00,VWS V14.01,2013-02-14 04:25:00,
2013-02-13 20:30:00,41.4,32.7,28.73,SSE,160,3.1,4.0,71,0.00,,---,0.00,VWS V14.01,2013-02-14 04:30:00,
2013-02-13 20:36:00,41.4,32.7,28.73,SSE,160,3.1,3.1,71,0.00,,---,0.00,VWS V14.01,2013-02-14 04:36:00,
2013-02-13 20:41:00,41.4,32.7,28.73,SE,146,0.0,2.7,71,0.00,,---,0.00,VWS V14.01,2013-02-14 04:41:00,
2013-02-13 20:46:00,41.4,32.7,28.73,SE,135,0.0,0.0,71,0.00,,---,0.00,VWS V14.01,2013-02-14 04:46:00,
2013-02-13 20:52:00,41.4,32.7,28.73,East,93,2.7,2.7,71,0.00,,---,0.00,VWS V14.01,2013-02-14 04:52:00,
2013-02-13 20:57:00,41.4,32.7,28.73,SE,124,0.0,0.0,71,0.00,,---,0.00,VWS V14.01,2013-02-14 04:57:00,
2013-02-13 21:00:00,41.5,32.8,28.73,SE,124,0.0,0.0,71,0.00,,---,0.00,VWS V14.01,2013-02-14 05:00:00,
2013-02-13 21:03:00,41.5,32.8,28.73,SE,124,0.0,0.0,71,0.00,,---,0.00,VWS V14.01,2013-02-14 05:03:00,
2013-02-13 21:04:00,41.5,32.8,28.73,SE,124,0.0,0.0,71,0.00,,---,0.00,VWS V14.01,2013-02-14 05:04:00,
2013-02-13 21:09:00,41.5,32.8,28.73,SE,124,0.0,0.0,71,0.00,,---,0.00,VWS V14.01,2013-02-14 05:09:00,
2013-02-13 21:15:00,41.5,33.2,28.73,SE,124,0.0,0.0,72,0.00,,---,0.00,VWS V14.01,2013-02-14 05:15:00,
2013-02-13 21:20:00,41.5,33.2,28.73,SE,124,0.0,0.0,72,0.00,,---,0.00,VWS V14.01,2013-02-14 05:20:00,
2013-02-13 21:25:00,41.5,33.2,28.73,SE,124,0.0,0.0,72,0.00,,---,0.00,VWS V14.01,2013-02-14 05:25:00,
2013-02-13 21:30:00,41.5,33.2,28.73,SE,124,0.0,0.0,72,0.00,,---,0.00,VWS V14.01,2013-02-14 05:30:00,
2013-02-13 21:36:00,41.5,33.2,28.73,SE,124,0.0,0.0,72,0.00,,---,0.00,VWS V14.01,2013-02-14 05:36:00,
2013-02-13 21:41:00,41.5,33.2,28.73,SE,124,0.0,0.0,72,0.00,,---,0.00,VWS V14.01,2013-02-14 05:41:00,
2013-02-13 21:46:00,41.4,33.0,28.73,SE,124,0.0,0.0,72,0.00,,---,0.00,VWS V14.01,2013-02-14 05:46:00,
2013-02-13 21:51:00,41.4,33.0,28.73,SE,124,0.0,0.0,72,0.00,,---,0.00,VWS V14.01,2013-02-14 05:51:00,
2013-02-13 21:57:00,41.4,33.0,28.73,SE,124,0.0,0.0,72,0.00,,---,0.00,VWS V14.01,2013-02-14 05:57:00,
2013-02-13 22:02:00,41.5,33.2,28.73,SE,124,0.0,0.0,72,0.00,,---,0.00,VWS V14.01,2013-02-14 06:02:00,
2013-02-13 22:07:00,41.5,33.2,28.73,SE,124,0.0,0.0,72,0.00,,---,0.00,VWS V14.01,2013-02-14 06:07:00,
2013-02-13 22:12:00,41.5,33.2,28.73,SE,124,0.0,0.0,72,0.00,,---,0.00,VWS V14.01,2013-02-14 06:12:00,
2013-02-13 22:18:00,41.5,33.2,28.73,SE,124,0.0,0.0,72,0.00,,---,0.00,VWS V14.01,2013-02-14 06:18:00,
2013-02-13 22:23:00,41.5,33.2,28.73,SE,124,0.0,0.0,72,0.00,,---,0.00,VWS V14.01,2013-02-14 06:23:00,
2013-02-13 22:28:00,41.5,33.2,28.73,SE,124,0.0,0.0,72,0.00,,---,0.00,VWS V14.01,2013-02-14 06:28:00,
2013-02-13 22:34:00,41.4,33.0,28.73,SE,124,0.0,0.0,72,0.00,,---,0.00,VWS V14.01,2013-02-14 06:34:00,
2013-02-13 22:39:00,41.4,33.0,28.73,SE,124,0.0,0.0,72,0.00,,---,0.00,VWS V14.01,2013-02-14 06:39:00,
2013-02-13 22:44:00,41.4,33.0,28.73,SE,124,0.0,0.0,72,0.00,,---,0.00,VWS V14.01,2013-02-14 06:44:00,
2013-02-13 22:49:00,41.5,33.2,28.73,SE,124,0.0,0.0,72,0.00,,---,0.00,VWS V14.01,2013-02-14 06:49:00,
2013-02-13 22:54:00,41.5,33.2,28.73,SE,124,0.0,0.0,72,0.00,,---,0.00,VWS V14.01,2013-02-14 06:54:00,
2013-02-13 23:00:00,41.4,33.0,28.73,SE,124,0.0,0.0,72,0.00,,---,0.00,VWS V14.01,2013-02-14 07:00:00,
2013-02-13 23:05:00,41.4,33.0,28.73,SE,124,0.0,0.0,72,0.00,,---,0.00,VWS V14.01,2013-02-14 07:05:00,
2013-02-13 23:10:00,41.4,33.0,28.73,SE,124,0.0,0.0,72,0.00,,---,0.00,VWS V14.01,2013-02-14 07:10:00,
2013-02-13 23:15:00,41.4,33.0,28.73,SE,124,0.0,0.0,72,0.00,,---,0.00,VWS V14.01,2013-02-14 07:15:00,
2013-02-13 23:21:00,41.4,33.0,28.73,SE,124,0.0,0.0,72,0.00,,---,0.00,VWS V14.01,2013-02-14 07:21:00,
2013-02-13 23:26:00,41.4,33.0,28.73,SE,124,0.0,0.0,72,0.00,,---,0.00,VWS V14.01,2013-02-14 07:26:00,
2013-02-13 23:31:00,41.4,33.0,28.73,SE,124,0.0,0.0,72,0.00,,---,0.00,VWS V14.01,2013-02-14 07:31:00,
2013-02-13 23:36:00,41.2,32.8,28.73,SE,124,0.0,0.0,72,0.00,,---,0.00,VWS V14.01,2013-02-14 07:36:00,
2013-02-13 23:42:00,41.2,32.8,28.76,SE,124,0.0,0.0,72,0.00,,---,0.00,VWS V14.01,2013-02-14 07:42:00,
2013-02-13 23:47:00,41.2,32.8,28.76,SE,124,0.0,0.0,72,0.00,,---,0.00,VWS V14.01,2013-02-14 07:47:00,
2013-02-13 23:52:00,41.2,32.8,28.76,SE,124,0.0,0.0,72,0.00,,---,0.00,VWS V14.01,2013-02-14 07:52:00,
2013-02-13 23:58:00,41.2,32.8,28.76,SE,124,0.0,0.0,72,0.00,,---,0.00,VWS V14.01,2013-02-14 07:58:00,